| time (UTC) | temp F | wind direction | speed MPH | gust MPH | rain 1hr in | rain 24hr in | rain mn in | humidity % | barometer mb |
| 20260505152002 | 64 | 228 | 2.0 | 6.0 | 0.00 | 1.17 | 1.17 | 80 | 1011.8 |
| 20260505124001 | 62 | 0 | 0.0 | 0.0 | 0.00 | 1.17 | 1.17 | 80 | 1012.0 |
| 20260505123002 | 62 | 0 | 0.0 | 0.0 | 0.00 | 1.17 | 1.17 | 79 | 1012.0 |
| 20260505122004 | 63 | 0 | 2.0 | 0.0 | 0.00 | 1.17 | 1.17 | 79 | 1012.0 |
| 20260505121000 | 63 | 0 | 0.0 | 0.0 | 0.00 | 1.17 | 1.17 | 79 | 1012.0 |
| 20260505115004 | 62 | 223 | 0.0 | 1.0 | 0.00 | 1.17 | 1.17 | 80 | 1012.1 |
| 20260505114001 | 61 | 340 | 0.0 | 6.0 | 0.00 | 1.17 | 1.17 | 80 | 1012.1 |
| 20260505113001 | 62 | 150 | 0.0 | 3.0 | 0.00 | 1.17 | 1.17 | 79 | 1012.2 |
| 20260505112001 | 61 | 255 | 0.0 | 2.0 | 0.00 | 1.17 | 1.17 | 80 | 1012.2 |
| 20260505101001 | 57 | 76 | 1.0 | 6.0 | 0.02 | 1.17 | 1.17 | 88 | 1012.4 |
| 20260505100000 | 57 | 75 | 3.0 | 8.0 | 0.02 | 1.17 | 1.17 | 88 | 1012.5 |
| 20260505095001 | 57 | 52 | 1.0 | 8.0 | 0.02 | 1.17 | 1.17 | 87 | 1012.5 |
| 20260505092004 | 58 | 1 | 3.0 | 9.0 | 0.00 | 1.15 | 1.15 | 84 | 1012.1 |
| 20260505091001 | 58 | 126 | 1.0 | 4.0 | 0.00 | 1.15 | 1.15 | 83 | 1012.2 |
| 20260505090001 | 58 | 0 | 1.0 | 0.0 | 0.00 | 1.15 | 1.15 | 83 | 1012.2 |
| 20260505085001 | 59 | 337 | 2.0 | 8.0 | 0.00 | 1.15 | 1.15 | 84 | 1012.0 |
| 20260505084002 | 59 | 337 | 3.0 | 6.0 | 0.00 | 1.15 | 1.15 | 83 | 1011.9 |
| 20260505083005 | 59 | 29 | 3.0 | 8.0 | 0.00 | 1.15 | 1.15 | 84 | 1011.8 |
| 20260505082003 | 58 | 104 | 3.0 | 3.0 | 0.00 | 1.15 | 1.15 | 86 | 1011.9 |
| 20260505080017 | 56 | 36 | 3.0 | 12.0 | 0.00 | 1.15 | 1.15 | 94 | 1011.5 |
| 20260505075000 | 56 | 13 | 2.0 | 8.0 | 0.00 | 1.15 | 1.15 | 94 | 1011.7 |
| 20260505074001 | 55 | 330 | 2.0 | 11.0 | 0.00 | 1.15 | 1.15 | 94 | 1011.8 |
| 20260505072008 | 55 | 1 | 3.0 | 8.0 | 0.02 | 1.15 | 1.15 | 94 | 1011.9 |
| 20260505064001 | 54 | 81 | 0.0 | 2.0 | 0.21 | 1.15 | 1.15 | 94 | 1011.7 |
| 20260505063002 | 54 | 44 | 3.0 | 9.0 | 0.26 | 1.14 | 1.14 | 94 | 1011.3 |
| 20260505062004 | 54 | 48 | 1.0 | 5.0 | 0.31 | 1.13 | 1.13 | 94 | 1011.5 |
| 20260505061001 | 54 | 88 | 0.0 | 2.0 | 0.29 | 1.08 | 1.08 | 94 | 1011.3 |
| 20260505055001 | 54 | 45 | 13.0 | 19.0 | 0.25 | 0.99 | 0.99 | 92 | 1011.0 |
| 20260505054005 | 55 | 42 | 2.0 | 17.0 | 0.25 | 0.93 | 0.93 | 90 | 1011.8 |
| 20260505053001 | 56 | 38 | 5.0 | 7.0 | 0.27 | 0.88 | 0.88 | 88 | 1011.7 |
| 20260505052001 | 56 | 36 | 7.0 | 14.0 | 0.27 | 0.81 | 0.81 | 87 | 1011.4 |
| 20260505051002 | 56 | 27 | 8.0 | 17.0 | 0.28 | 0.78 | 0.78 | 86 | 1011.4 |
| 20260505041003 | 56 | 58 | 2.0 | 13.0 | 0.30 | 0.49 | 0.49 | 91 | 1010.9 |
| 20260505034001 | 56 | 0 | 0.0 | 0.0 | 0.14 | 0.29 | 0.29 | 92 | 1011.3 |
| 20260505033015 | 56 | 0 | 0.0 | 0.0 | 0.15 | 0.28 | 0.28 | 92 | 1011.4 |
| 20260505032002 | 56 | 0 | 0.0 | 0.0 | 0.12 | 0.23 | 0.23 | 92 | 1011.6 |
| 20260505031002 | 56 | 0 | 0.0 | 0.0 | 0.09 | 0.19 | 0.19 | 92 | 1011.7 |
| 20260505030001 | 56 | 0 | 0.0 | 0.0 | 0.09 | 0.17 | 0.17 | 92 | 1012.0 |
| 20260505025004 | 57 | 0 | 0.0 | 0.0 | 0.09 | 0.16 | 0.16 | 92 | 1012.1 |
| 20260505024001 | 57 | 0 | 0.0 | 0.0 | 0.09 | 0.15 | 0.15 | 91 | 1012.2 |
| 20260505023006 | 57 | 0 | 0.0 | 0.0 | 0.09 | 0.13 | 0.13 | 91 | 1012.5 |
| 20260505022001 | 57 | 0 | 0.0 | 0.0 | 0.08 | 0.11 | 0.11 | 90 | 1012.5 |
| 20260505020006 | 57 | 0 | 0.0 | 0.0 | 0.07 | 0.09 | 0.09 | 90 | 1012.7 |
| 20260505015004 | 58 | 0 | 0.0 | 0.0 | 0.07 | 0.07 | 0.07 | 89 | 1012.8 |
| 20260505014011 | 58 | 0 | 0.0 | 0.0 | 0.06 | 0.06 | 0.06 | 88 | 1013.0 |
| 20260505013002 | 58 | 0 | 0.0 | 0.0 | 0.04 | 0.04 | 0.04 | 87 | 1013.1 |
| 20260505012014 | 58 | 0 | 0.0 | 0.0 | 0.03 | 0.03 | 0.03 | 86 | 1013.1 |
| 20260505011005 | 59 | 0 | 0.0 | 0.0 | 0.02 | 0.02 | 0.02 | 84 | 1013.4 |
| 20260505010001 | 60 | 0 | 0.0 | 0.0 | 0.01 | 0.01 | 0.01 | 82 | 1013.5 |
| 20260505005008 | 61 | 0 | 0.0 | 0.0 | 0.00 | 0.00 | 0.00 | 78 | 1013.6 |
| 20260505004001 | 62 | 0 | 0.0 | 0.0 | 0.00 | 0.00 | 0.00 | 75 | 1013.7 |
| 20260505003001 | 62 | 0 | 0.0 | 0.0 | 0.00 | 0.00 | 0.00 | 73 | 1013.7 |
| 20260505000005 | 62 | 0 | 0.0 | 0.0 | 0.00 | 0.00 | 0.00 | 73 | 1014.2 |
| 20260504235006 | 62 | 0 | 0.0 | 0.0 | 0.00 | 0.00 | 0.00 | 71 | 1014.4 |
| 20260504233001 | 63 | 0 | 0.0 | 0.0 | 0.00 | 0.00 | 0.00 | 70 | 1014.7 |
| 20260504232001 | 62 | 0 | 0.0 | 0.0 | 0.00 | 0.00 | 0.00 | 70 | 1014.8 |
| 20260504231001 | 62 | 0 | 0.0 | 0.0 | 0.00 | 0.00 | 0.00 | 72 | 1014.9 |
| 20260504225002 | 62 | 0 | 0.0 | 0.0 | 0.00 | 0.00 | 0.00 | 73 | 1015.2 |
| 20260504224005 | 61 | 0 | 0.0 | 0.0 | 0.00 | 0.00 | 0.00 | 77 | 1015.4 |
| 20260504223001 | 61 | 0 | 0.0 | 0.0 | 0.00 | 0.00 | 0.00 | 78 | 1015.5 |
| 20260504222001 | 61 | 0 | 0.0 | 0.0 | 0.00 | 0.00 | 0.00 | 79 | 1015.8 |
| 20260504220006 | 61 | 0 | 0.0 | 0.0 | 0.00 | 0.00 | 0.00 | 78 | 1016.0 |
| 20260504215004 | 61 | 0 | 0.0 | 0.0 | 0.00 | 0.00 | 0.00 | 78 | 1016.2 |
| 20260504214006 | 61 | 0 | 0.0 | 0.0 | 0.00 | 0.00 | 0.00 | 78 | 1016.3 |
| 20260504212002 | 61 | 0 | 0.0 | 0.0 | 0.00 | 0.00 | 0.00 | 79 | 1016.6 |
| 20260504211003 | 61 | 0 | 0.0 | 0.0 | 0.00 | 0.00 | 0.00 | 79 | 1016.6 |
| 20260504210001 | 61 | 0 | 0.0 | 0.0 | 0.00 | 0.00 | 0.00 | 78 | 1016.7 |
| 20260504205010 | 61 | 0 | 0.0 | 0.0 | 0.00 | 0.00 | 0.00 | 78 | 1016.8 |
| 20260504204005 | 61 | 0 | 0.0 | 0.0 | 0.00 | 0.00 | 0.00 | 78 | 1016.9 |
| 20260504200002 | 62 | 0 | 0.0 | 0.0 | 0.00 | 0.00 | 0.00 | 80 | 1016.9 |
| 20260504195004 | 62 | 0 | 0.0 | 0.0 | 0.00 | 0.00 | 0.00 | 79 | 1016.9 |
| 20260504194009 | 62 | 0 | 0.0 | 0.0 | 0.00 | 0.00 | 0.00 | 78 | 1016.9 |
| 20260504193003 | 63 | 0 | 0.0 | 0.0 | 0.00 | 0.00 | 0.00 | 78 | 1016.9 |
| 20260504192002 | 63 | 0 | 0.0 | 0.0 | 0.00 | 0.00 | 0.00 | 77 | 1016.7 |
| 20260504191002 | 63 | 233 | 0.0 | 1.0 | 0.00 | 0.00 | 0.00 | 78 | 1016.7 |
| 20260504190002 | 63 | 233 | 0.0 | 1.0 | 0.00 | 0.00 | 0.00 | 77 | 1016.8 |
| 20260504185003 | 63 | 0 | 0.0 | 0.0 | 0.00 | 0.00 | 0.00 | 78 | 1016.6 |
| 20260504182006 | 64 | 0 | 0.0 | 0.0 | 0.00 | 0.00 | 0.00 | 77 | 1016.5 |
| 20260504181004 | 64 | 229 | 0.0 | 2.0 | 0.00 | 0.00 | 0.00 | 76 | 1016.4 |
| 20260504180006 | 64 | 218 | 0.0 | 4.0 | 0.00 | 0.00 | 0.00 | 75 | 1016.4 |
| 20260504175008 | 64 | 177 | 0.0 | 1.0 | 0.00 | 0.00 | 0.00 | 76 | 1016.2 |
| 20260504174003 | 64 | 176 | 0.0 | 1.0 | 0.00 | 0.00 | 0.00 | 75 | 1016.2 |
| 20260504173008 | 65 | 224 | 0.0 | 1.0 | 0.00 | 0.00 | 0.00 | 74 | 1016.2 |
| 20260504172003 | 65 | 245 | 1.0 | 1.0 | 0.00 | 0.00 | 0.00 | 72 | 1016.2 |
| 20260504171002 | 65 | 183 | 0.0 | 7.0 | 0.00 | 0.00 | 0.00 | 72 | 1016.3 |